This demonstration page uses our WeatherBlox Daily Observations layout. Learn more.

Left ArrowRight Arrow

Hourly Observations for June 4, 2017

Temp ( °F °C ) Dew Point ( °F °C ) Humidity (%) Winds ( mph kmh ) Pressure ( in mb ) Visibility ( mi km ) Precip ( " mm )
12:15 am 00:15 Clear 67 19.3 57 13.8 71 71 Calm 29.97 1015 10 16.0934 0 0
12:35 am 00:35 Clear 66 19 57 13.7 72 72 Calm 29.97 1015 10 16.0934 0 0
12:55 am 00:55 Clear 65 18.2 57 13.7 75 75 Calm 29.97 1015 10 16.0934 0 0
1:15 am 01:15 Clear 65 18.4 57 13.7 74 74 Calm 29.97 1015 10 16.0934 0 0
1:35 am 01:35 Clear 64 17.5 56 13.6 78 78 NNW 3 6 29.97 1015 10 16.0934 0 0
1:55 am 01:55 Clear 63 17.2 56 13.5 79 79 Calm 29.97 1015 10 16.0934 0 0
2:15 am 02:15 Clear 63 17 56 13.4 79 79 NW 3 6 29.94 1014 10 16.0934 0 0
2:35 am 02:35 Clear 62 16.6 56 13.2 80 80 NW 3 6 29.94 1014 10 16.0934 0 0
2:55 am 02:55 Clear 62 16.6 56 13.2 80 80 Calm 29.94 1014 10 16.0934 0 0
3:15 am 03:15 Clear 61 16.3 56 13.3 83 83 Calm 29.94 1014 10 16.0934 0 0
3:35 am 03:35 Clear 61 16.2 56 13.3 83 83 Calm 29.94 1014 10 16.0934 0 0
3:55 am 03:55 Clear 61 16.2 56 13.1 82 82 NW 3 6 29.94 1014 10 16.0934 0 0
4:15 am 04:15 Clear 61 16 55 12.9 82 82 NW 5 7 29.94 1014 10 16.0934 0 0
4:35 am 04:35 Clear 60 15.3 55 12.7 85 85 NNW 5 7 29.97 1015 10 16.0934 0 0
4:55 am 04:55 Clear 59 15.1 55 12.6 85 85 Calm 29.97 1015 10 16.0934 0 0
5:15 am 05:15 Clear 59 14.8 55 12.6 87 87 NW 6 9 29.97 1015 10 16.0934 0 0
5:35 am 05:35 Clear 59 15.1 55 13 87 87 NW 5 7 29.97 1015 10 16.0934 0 0
5:55 am 05:55 Clear 59 14.8 55 12.7 87 87 NW 3 6 29.97 1015 10 16.0934 0 0
6:15 am 06:15 Sunny 59 14.9 55 13 89 89 NW 3 6 29.97 1015 10 16.0934 0 0
6:35 am 06:35 Sunny 59 15.1 56 13.2 89 89 Calm 29.97 1015 10 16.0934 0 0
6:55 am 06:55 Sunny 60 15.6 56 13.4 87 87 NW 3 6 29.97 1015 10 16.0934 0 0
7:15 am 07:15 Sunny 62 16.7 57 14 84 84 NW 3 6 29.94 1014 10 16.0934 0 0
7:35 am 07:35 Sunny 64 18 58 14.3 79 79 NW 5 7 29.94 1014 10 16.0934 0 0
7:55 am 07:55 Sunny 66 18.8 58 14.2 75 75 NNW 7 11 29.94 1014 10 16.0934 0 0
8:15 am 08:15 Sunny 67 19.4 58 14.2 72 72 N 8 13 29.94 1014 10 16.0934 0 0
8:35 am 08:35 Sunny 69 20.4 58 14.3 68 68 NNW 8 13 29.91 1013 10 16.0934 0 0
8:55 am 08:55 Sunny 71 21.6 58 14.5 64 64 NNW 7 11 29.91 1013 10 16.0934 0 0
9:15 am 09:15 Sunny 73 22.7 58 14.5 60 60 N 6 9 29.91 1013 10 16.0934 0 0
9:35 am 09:35 Sunny 74 23.5 58 14.7 58 58 NNW 7 11 29.88 1012 10 16.0934 0 0
9:55 am 09:55 Sunny 76 24.3 58 14.5 54 54 NNW 6 9 29.88 1012 10 16.0934 0 0
10:15 am 10:15 Sunny 77 25.1 58 14.6 52 52 N 5 7 29.88 1012 10 16.0934 0 0
10:35 am 10:35 Sunny 78 25.7 58 14.2 49 49 N 5 7 29.88 1012 10 16.0934 0 0
10:55 am 10:55 Sunny 79 26.1 57 13.9 47 47 Calm 29.85 1011 10 16.0934 0 0
11:15 am 11:15 Sunny 80 26.5 57 13.9 46 46 N 5 7 29.83 1010 10 16.0934 0 0
11:35 am 11:35 Sunny 80 26.6 57 14 46 46 ENE 7 11 29.83 1010 10 16.0934 0 0
11:55 am 11:55 Sunny 80 26.6 57 13.9 46 46 E 5 7 29.83 1010 10 16.0934 0 0
12:15 pm 12:15 Sunny 82 27.5 56 13.6 42 42 NE 6 9 29.83 1010 10 16.0934 0 0
12:35 pm 12:35 Partly Cloudy 82 27.5 54 12.1 38 38 E 9 15 29.83 1010 10 16.0934 0 0
12:55 pm 12:55 Partly Cloudy 82 27.8 53 11.6 37 37 ESE 3 6 29.83 1010 10 16.0934 0 0
1:15 pm 13:15 Partly Cloudy 82 28 50 10.1 33 33 E 7 11 29.83 1010 10 16.0934 0 0
1:35 pm 13:35 Partly Cloudy 84 28.7 51 10.4 32 32 NE 7 11 29.83 1010 10 16.0934 0 0
1:55 pm 13:55 Sunny 83 28.6 49 9.4 30 30 E 7 11 29.83 1010 10 16.0934 0 0
2:15 pm 14:15 Sunny 82 27.9 49 9.7 32 32 Calm 29.8 1009 10 16.0934 0 0
2:35 pm 14:35 Sunny 83 28.6 51 10.5 32 32 ENE 8 13 29.8 1009 10 16.0934 0 0
2:55 pm 14:55 Sunny 84 28.8 49 9.6 30 30 ESE 5 7 29.8 1009 10 16.0934 0 0
3:15 pm 15:15 Sunny 84 29 50 10 31 31 ENE 9 15 29.8 1009 10 16.0934 0 0
3:35 pm 15:35 Partly Cloudy 85 29.3 51 10.5 31 31 E 5 7 29.77 1008 10 16.0934 0 0
3:55 pm 15:55 Sunny 85 29.2 47 8.5 27 27 Calm 29.77 1008 10 16.0934 0 0
4:15 pm 16:15 Sunny 85 29.7 49 9.4 28 28 ENE 7 11 29.74 1007 10 16.0934 0 0
4:35 pm 16:35 Sunny 86 29.9 47 8.6 26 26 SE 7 11 29.74 1007 10 16.0934 0 0
4:55 pm 16:55 Sunny 85 29.6 49 9.6 29 29 SE 5 7 29.77 1008 10 16.0934 0 0
5:15 pm 17:15 Sunny 86 29.9 48 8.9 27 27 NNE 5 7 29.74 1007 10 16.0934 0 0
5:35 pm 17:35 Sunny 86 30 49 9.2 27 27 ENE 10 17 29.74 1007 10 16.0934 0 0
5:55 pm 17:55 Sunny 85 29.7 48 8.8 27 27 ESE 7 11 29.74 1007 10 16.0934 0 0
6:15 pm 18:15 Hazy 85 29.5 47 8.4 27 27 NNE 7 11 29.77 1008 3 4.82802 0 0
6:35 pm 18:35 Sunny 85 29.5 47 8.6 27 27 E 6 9 29.71 1006 10 16.0934 0 0
6:55 pm 18:55 Sunny 85 29.4 48 8.9 28 28 ESE 3 6 29.71 1006 10 16.0934 0 0
7:15 pm 19:15 Sunny 85 29.3 48 8.8 28 28 E 7 11 29.74 1007 10 16.0934 0 0
7:35 pm 19:35 Sunny 84 28.8 47 8.5 28 28 E 5 7 29.74 1007 10 16.0934 0 0
7:55 pm 19:55 Sunny 84 28.8 46 8 27 27 E 5 7 29.74 1007 10 16.0934 0 0
8:15 pm 20:15 Sunny 82 28 49 9.5 31 31 E 5 7 29.74 1007 10 16.0934 0 0
8:35 pm 20:35 Sunny 81 27.3 49 9.5 33 33 E 5 7 29.74 1007 10 16.0934 0 0
8:55 pm 20:55 Sunny 80 26.4 49 9.6 35 35 E 3 6 29.74 1007 10 16.0934 0 0
9:15 pm 21:15 Clear 77 25.1 50 10 39 39 E 5 7 29.77 1008 10 16.0934 0 0
9:35 pm 21:35 Clear 78 25.4 50 10.2 38 38 SW 3 6 29.8 1009 10 16.0934 0 0
9:55 pm 21:55 Clear 76 24.5 53 11.7 45 45 Calm 29.8 1009 10 16.0934 0 0
10:15 pm 22:15 Clear 74 23.1 54 12 50 50 Calm 29.8 1009 10 16.0934 0 0
10:35 pm 22:35 Clear 73 22.7 55 12.5 53 53 Calm 29.8 1009 10 16.0934 0 0
10:55 pm 22:55 Clear 71 21.4 54 12.3 56 56 Calm 29.83 1010 10 16.0934 0 0
11:15 pm 23:15 Clear 70 21.3 55 12.5 57 57 Calm 29.83 1010 10 16.0934 0 0
11:35 pm 23:35 Clear 69 20.3 54 12.4 61 61 Calm 29.83 1010 10 16.0934 0 0
11:55 pm 23:55 Clear 69 20.5 54 12.4 60 60 Calm 29.83 1010 10 16.0934 0 0

Powered by AerisWeather